www.pogodaiklimat.ru

Погода и климат >> Архив погоды >> Сербия >> Палич


ПОГОДА в Паличе

  • Прогноз погоды в Паличе
  • Монитор погоды в Паличе

АРХИВ ПОГОДЫ в Паличе

Время (UTC), дата Ветер
(напр.,м/с)
 
Видим.   Явления Облачность Т
(С)
Тd
(С)
f
(%)
Тe
(С)
Тes
(С)
Комфортность P
(гПа)
Po
(гПа)
Тmin
(С)
Tmax
(С)
R
(мм)
R24
(мм)
S
(см)
01 13.07 ЮЗ 1 10 км 10/10 1000 м
[Sc]
+17.2 +14.4 84 +18 +18 1011.9 999.4
02 13.07 ЮЗ 2 10 км 10/10 1000 м
[Sc]
+17.1 +14.7 86 +17 +17 1011.6 999.1
03 13.07 З 2 10 км 10/10 1000 м
[Sc]
+17.1 +14.7 86 +17 +17 1011.5 999.0
04 13.07 штиль 0 10 км 9/9 1000 м
[Sc]
+16.2 +14.2 88 +16 +16 1011.5 999.0
05 13.07 СЗ 1 10 км 9/9 1000 м
[Sc]
+16.6 +14.5 87 +17 +18 1011.5 999.0
06 13.07 ЮВ 1 10 км 10/10 1000 м
[Sc]
+18.1 +14.7 81 +19 +19 1011.4 999.0 +15.0
07 13.07 Ю 1 10 км 9/9 1000 м
[Sc]
+18.6 +15.4 82 +21 +22 комфорт 1011.3 998.9
08 13.07 ЮЗ 1 10 км 10/10 1000 м
[Sc]
+20.1 +16.2 78 +24 +24 комфорт 1011.4 999.1
09 13.07 ЮЗ 1 10 км 10/10 1000 м
[Sc]
+20.7 +16.2 75 +25 +25 комфорт 1011.2 998.9
10 13.07 З 1 10 км 10/10 1000 м
[Cu Sc]
+21.9 +15.6 67 +26 +26 душно 1011.1 998.9
11 13.07 СЗ 4 10 км гроза без осадков 8/8 600 м
[Cb cap]
+23.3 +16.0 64 +28 +30 душно 1010.5 998.3
12 13.07 С 3 10 км гроза без осадков 9/9 600 м
[Cb cap]
+21.8 +15.3 67 +25 +27 комфорт 1010.4 998.2
13 13.07 СВ 2 10 км в посл. час гроза 9/9 1000 м
[Cu Sc]
+22.4 +16.4 69 +27 +28 душно 1010.4 998.2
14 13.07 СВ 2 10 км в посл. час гроза 8/8 1000 м
[Cu Sc]
+20.4 +16.7 79 +24 +26 комфорт 1010.4 998.1
15 13.07 ЮВ 1 10 км в посл. час гроза {дождь} 9/9 1000 м
[Cu Sc]
+20.7 +15.5 72 +25 +26 комфорт 1010.4 998.1
16 13.07 ЮЗ 5 2000 м сильн. гроза, ливневой дождь 10/10 600 м
[Cb cap]
+17.9 +16.5 92 +17 +17 1010.5 998.1
17 13.07 З 2 10 км в посл. час гроза {дождь} 9/9 600 м
[Cb cap]
+18.4 +16.5 89 +20 +20 1010.3 997.9
18 13.07 СЗ 2 10 км {гроза, ливн. осадки} 9/9 1000 м
[Sc]
+18.0 +16.1 89 +19 +19 1010.1 997.7 +23.6 9
19 13.07 З 2 10 км 6/4 1000 м
[Sc Ci sp]
+17.0 +15.7 92 +17 +17 1010.2 997.8
20 13.07 СЗ 2 10 км 9/9 1000 м
[Sc]
+17.4 +16.1 92 +18 +18 1010.7 998.3
21 13.07 СЗ 3 10 км 8/8 1000 м
[Sc]
+17.4 +16.1 92 +17 +17 1010.9 998.5
22 13.07 СЗ 3 10 км 8/8 1000 м
[Sc]
+17.0 +15.9 93 +17 +17 1010.9 998.5
23 13.07 СЗ 2 10 км 9/9 1000 м
[Sc]
+16.5 +15.3 93 +17 +17 1010.7 998.2
00 14.07 СЗ 4 10 км 9/9 1000 м
[Sc]
+15.7 +14.9 95 +15 +15 1010.4 997.9
01 14.07 СЗ 2 10 км 9/9 1000 м
[Sc]
+15.7 +14.9 95 +16 +16 1010.4 997.9
02 14.07 С 1 10 км 9/9 1000 м
[Sc]
+15.9 +15.1 95 +17 +17 1010.2 997.7
03 14.07 С 2 10 км 8/8 1000 м
[Sc]
+15.6 +14.9 96 +15 +15 1010.2 997.7
04 14.07 С 2 10 км 8/8 1000 м
[Sc]
+15.5 +14.8 96 +15 +15 1010.2 997.7
05 14.07 С 2 10 км 9/9 1000 м
[Sc]
+16.2 +15.2 94 +16 +16 1010.3 997.8
06 14.07 С 2 10 км 9/9 1000 м
[Sc]
+16.6 +15.0 90 +17 +17 1010.3 997.9 +15.4
07 14.07 С 2 10 км 8/8 1000 м
[Sc]
+17.7 +15.8 89 +18 +20 1010.5 998.1
08 14.07 С 2 10 км 8/8 1000 м
[Cu Sc]
+18.7 +16.3 86 +20 +23 1010.5 998.1
09 14.07 С 2 10 км 5/5 1000 м
[Cu med, cong]
+20.5 +15.9 75 +24 +32 комфорт 1010.4 998.1
10 14.07 С 3 10 км 5/5 1000 м
[Cu med, cong]
+21.4 +15.4 69 +25 +32 комфорт 1010.4 998.1
11 14.07 С 2 10 км 5/5 1000 м
[Cu med, cong]
+22.2 +14.4 61 +25 +35 комфорт 1010.1 997.9
12 14.07 С 2 10 км 4/4 1000 м
[Cu med, cong]
+24.1 +13.9 53 +26 +37 жарко 1009.9 997.7
13 14.07 С 2 10 км 6/6 1000 м
[Cu med, cong]
+24.3 +14.0 53 +27 +32 жарко 1009.4 997.3
14 14.07 С 1 10 км гроза, ливневой дождь 10/10 600 м
[Cb cap]
+21.1 +17.4 79 +25 +25 комфорт 1009.7 997.5
15 14.07 С 2 10 км в посл. час гроза {ливн. осадки} 9/9 1000 м
[Sc]
+17.4 +16.6 95 +18 +18 1010.6 998.2
16 14.07 С 2 10 км 4/4 1000 м
[Sc]
+19.4 +15.4 78 +22 +24 комфорт 1010.7 998.3
17 14.07 С 2 10 км 1/1 1000 м
[Cu med, cong]
+20.9 +16.9 78 +25 +26 комфорт 1010.1 997.8
18 14.07 С 1 10 км {гроза, ливн. осадки} 3/3 1000 м
[Cu Sc]
+20.2 +16.5 79 +24 +24 комфорт 1010.5 998.2 +24.6 3
19 14.07 штиль 0 10 км зарница 8/8 600 м
[Cb cap]
+18.8 +16.1 84 +20 +20 1010.9 998.5
20 14.07 С 1 10 км 10/10 1000 м
[Sc]
+18.6 +16.1 85 +21 +21 комфорт 1011.3 998.9
21 14.07 С 1 10 км 9/9 1000 м
[Sc]
+17.9 +15.7 87 +19 +19 1011.5 999.1
22 14.07 С 1 10 км 4/4 1000 м
[Sc]
+17.3 +15.4 89 +18 +18 1011.6 999.1
23 14.07 С 2 10 км ясно +16.0 +14.3 90 +16 +16 1011.8 999.3
00 15.07 С 2 10 км ясно +15.2 +13.5 90 +15 +15 1011.8 999.3
01 15.07 С 2 10 км ясно +14.6 +12.9 90 +14 +14 1011.6 999.1
02 15.07 С 2 10 км ясно +14.0 +12.6 91 +13 +13 1011.7 999.1
03 15.07 С 1 10 км ясно +13.5 +12.6 94 +14 +14 1011.7 999.1
04 15.07 С 1 10 км ясно +13.5 +12.6 94 +14 +14 1012.0 999.4
05 15.07 С 1 10 км ясно +15.3 +13.1 87 +16 +18 1012.3 999.7
06 15.07 С 2 10 км ясно +17.2 +13.4 78 +18 +23 1012.3 999.8 +13.0
07 15.07 С 2 10 км ясно +19.6 +13.0 66 +22 +31 комфорт 1012.1 999.8
08 15.07 СВ 3 10 км ясно +20.8 +12.9 61 +24 +34 комфорт 1012.1 999.9
09 15.07 СВ 3 10 км 1/1 1000 м
[Cu hum]
+22.0 +11.7 52 +24 +36 комфорт 1012.1 999.9
10 15.07 СВ 3 10 км 3/3 1000 м
[Cu hum]
+23.3 +11.7 48 +26 +36 жарко 1012.3 1000.1
11 15.07 С 2 10 км 4/4 1000 м
[Cu med, cong]
+24.2 +19.9 77 +30 +41 очень
душно
1012.1 999.9
12 15.07 С 3 10 км 6/6 1000 м
[Cu med, cong]
+24.1 +11.9 46 +26 +31 жарко 1012.1 999.8
13 15.07 СВ 4 10 км 5/5 1000 м
[Cu med, cong]
+24.4 +10.5 42 +26 +30 жарко 1012.0 999.8
14 15.07 СВ 2 10 км 6/6 1000 м
[Cu med, cong]
+24.6 +10.1 40 +26 +30 жарко 1012.0 999.9
15 15.07 С 3 10 км 4/4 1000 м
[Cu med, cong]
+25.3 +8.8 35 +26 +29 жарко 1011.7 999.5
16 15.07 СВ 2 10 км 3/3 1000 м
[Cu hum]
+25.2 +9.6 37 +26 +28 жарко 1011.7 999.5
17 15.07 С 2 10 км 1/1 1000 м
[Cu hum]
+24.2 +10.8 43 +25 +26 комфорт 1012.0 999.8
18 15.07 С 1 10 км 3/0
[Ci fib]
+23.5 +11.4 47 +25 +25 комфорт 1012.0 999.8 +25.6
19 15.07 штиль 0 10 км 3/0
[Ac trans Ci fib]
+20.0 +13.8 67 +22 +22 комфорт 1012.2 999.9
20 15.07 штиль 0 10 км 3/0
[Ac trans Ci fib]
+17.6 +14.5 82 +18 +18 1012.7 1000.3
21 15.07 З 1 10 км 1/0
[Ci fib]
+16.0 +14.3 90 +17 +17 1013.1 1000.6
22 15.07 штиль 0 10 км 3/0
[Ci fib]
+15.0 +13.5 91 +15 +15 1013.3 1000.7
23 15.07 З 1 10 км 3/0
[Ac trans]
+14.8 +13.6 93 +15 +15 1013.3 1000.7
00 16.07 штиль 0 10 км 3/0
[Ac trans Ci fib]
+14.1 +13.2 94 +14 +14 1013.3 1000.7
01 16.07 СВ 1 10 км 4/0
[Ac trans Ci fib]
+12.9 +12.2 96 +13 +13 1013.4 1000.7
02 16.07 штиль 0 10 км 3/0
[Ac trans Ci fib]
+12.2 +11.1 93 +12 +12 1013.3 1000.6
03 16.07 СЗ 1 10 км 1/0
[Ac trans]
+12.2 +11.1 93 +12 +12 1012.2 1000.6
04 16.07 С 1 10 км 1/0
[Ci fib]
+11.8 +11.2 96 +12 +12 1013.0 1000.3
05 16.07 штиль 0 10 км 1/0
[Ac trans]
+15.0 +12.1 83 +15 +18 1012.9 1000.3
06 16.07 Ю 1 10 км 1/0
[Ac trans]
+18.3 +11.1 63 +20 +25 1012.7 1000.3 +11.6
07 16.07 В 1 10 км ясно +21.5 +13.2 59 +24 +34 комфорт 1013.0 1000.6
08 16.07 В 1 10 км ясно +23.4 +11.4 47 +26 +41 жарко 1013.1 1000.9
09 16.07 ЮВ 2 10 км 1/1 600 м
[Cu hum]
+24.3 +10.7 42 +25 +40 комфорт 1013.1 1000.9
10 16.07 СВ 2 10 км 4/4 1000 м
[Cu med, cong]
+25.4 +9.6 37 +26 +37 жарко 1013.0 1000.9
11 16.07 З 2 10 км 5/5 1000 м
[Cu med, cong]
+25.6 +11.2 40 +27 +36 жарко 1012.8 1000.7
12 16.07 СЗ 1 10 км 5/5 1000 м
[Cu med, cong]
+25.1 +9.7 38 +26 +36 жарко 1012.7 1000.6
13 16.07 СЗ 2 10 км 5/5 1000 м
[Cu med, cong]
+25.5 +9.6 37 +26 +33 жарко 1012.4 1000.3
14 16.07 СВ 1 10 км 4/4 1000 м
[Cu med, cong]
+26.6 +9.5 34 +27 +34 жарко 1012.2 1000.1
15 16.07 В 2 10 км 4/4 1000 м
[Cu med, cong]
+26.6 +8.6 32 +27 +31 жарко 1011.6 999.5
16 16.07 С 2 10 км 3/3 1000 м
[Cu hum]
+26.5 +9.9 35 +27 +29 жарко 1011.6 999.5
17 16.07 СВ 2 10 км 1/1 1000 м
[Cu hum]
+26.0 +10.0 37 +27 +28 жарко 1011.4 999.3
18 16.07 штиль 0 10 км ясно +24.5 +12.9 48 +26 +26 жарко 1011.5 999.3 +27.3
19 16.07 штиль 0 10 км ясно +20.8 +12.7 60 +23 +23 комфорт 1012.0 999.7
20 16.07 штиль 0 10 км ясно +18.7 +13.8 73 +19 +19 1012.6 1000.2
21 16.07 штиль 0 10 км ясно +18.0 +14.0 77 +18 +18 1012.6 1000.2
22 16.07 З 1 10 км 3/3 1000 м
[Sc]
+17.5 +13.9 79 +19 +19 1012.6 1000.2
23 16.07 З 1 10 км 10/10 1000 м
[Sc]
+19.2 +12.5 65 +21 +21 комфорт 1012.7 1000.2
00 17.07 СЗ 2 10 км 1/1 1000 м
[Sc]
+18.4 +11.2 63 +19 +19 1012.9 1000.5
01 17.07 С 2 10 км ясно +17.8 +11.9 68 +18 +18 1012.7 1000.3
02 17.07 С 2 10 км ясно +16.9 +12.2 74 +17 +17 1012.8 1000.3
03 17.07 С 2 10 км 1/1 1000 м
[Sc]
+16.4 +11.8 74 +17 +17 1012.8 1000.3
04 17.07 С 2 10 км 1/1 1000 м
[Cu hum]
+16.2 +11.6 74 +16 +17 1012.8 1000.3
05 17.07 С 2 10 км ясно +17.9 +12.0 68 +18 +21 1012.9 1000.5
06 17.07 С 3 10 км ясно +19.0 +11.2 61 +20 +24 1013.3 1000.9 +16.1
07 17.07 С 3 10 км ясно +21.0 +10.6 51 +23 +31 комфорт 1013.3 1001.0
08 17.07 С 4 10 км ясно +22.7 +11.2 48 +25 +33 комфорт 1013.2 1001.0
09 17.07 С 3 10 км ясно +23.5 +10.7 44 +25 +38 комфорт 1012.9 1000.7
10 17.07 С 4 10 км ясно +24.1 +11.7 46 +26 +38 жарко 1012.8 1000.6
11 17.07 С 4 10 км 1/1 1000 м
[Cu hum]
+25.1 +11.6 43 +27 +38 жарко 1012.4 1000.3
12 17.07 СЗ 5 10 км 3/3 1000 м
[Cu hum]
+25.7 +10.5 38 +27 +33 жарко 1012.2 1000.1
13 17.07 С 4 10 км 3/3 1000 м
[Cu hum]
+26.5 +11.2 38 +27 +34 жарко 1012.0 999.9
14 17.07 С 4 10 км 4/1 1000 м
[Cu hum Ci fib]
+26.6 +10.7 37 +27 +33 жарко 1011.8 999.7
15 17.07 С 4 10 км 5/1 1000 м
[Cu hum Ci fib]
+26.6 +10.7 37 +27 +31 жарко 1011.4 999.4
16 17.07 С 3 10 км 5/0
[Ci fib]
+26.4 +10.8 38 +27 +30 жарко 1011.2 999.1
17 17.07 С 3 10 км 6/0
[Ci fib]
+25.9 +11.2 40 +27 +28 жарко 1011.5 999.4
18 17.07 С 1 10 км 4/0
[Ci sp]
+24.7 +12.7 47 +27 +27 жарко 1011.6 999.5 +27.2
19 17.07 штиль 0 10 км 4/0
[Ci sp]
+22.0 +13.6 59 +25 +25 комфорт 1011.8 999.5
20 17.07 штиль 0 10 км 3/0
[Ci sp]
+19.1 +14.0 72 +20 +20 1012.3 999.9
21 17.07 штиль 0 10 км 5/0
[Ci fib]
+17.4 +14.5 83 +17 +17 1012.4 999.9
22 17.07 штиль 0 10 км 3/0
[Ci fib]
+16.6 +14.6 88 +16 +16 1012.7 1000.2
23 17.07 штиль 0 10 км 6/0
[Ci sp]
+15.8 +14.5 92 +16 +16 1012.7 1000.2
00 18.07 З 1 10 км 5/0
[Ci sp]
+16.3 +14.7 90 +17 +17 1012.7 1000.2
01 18.07 З 1 10 км 5/0
[Ci sp]
+15.4 +14.1 92 +16 +16 1012.4 999.8
02 18.07 штиль 0 10 км 6/0
[Ci fib]
+14.8 +13.6 93 +14 +14 1012.4 999.8
03 18.07 З 1 10 км 3/0
[Ci fib]
+14.4 +13.2 92 +15 +15 1012.7 1000.1
04 18.07 штиль 0 10 км 5/0
[Ac trans Ci sp]
+14.6 +13.6 94 +14 +15 1012.7 1000.1
05 18.07 С 1 10 км 6/3 1000 м
[Sc Ci fib]
+16.8 +14.0 84 +18 +19 1013.3 1000.7
06 18.07 С 1 10 км 5/4 1000 м
[Sc Ci fib]
+20.0 +14.2 69 +23 +27 комфорт 1013.1 1000.7 +14.3
07 18.07 Ю 1 10 км 6/5 1000 м
[Sc Ci fib]
+21.2 +13.2 60 +24 +28 комфорт 1012.5 1000.2
08 18.07 З 2 10 км 8/5 1000 м
[Sc Ci fib]
+23.0 +13.9 57 +26 +32 жарко 1012.5 1000.3
09 18.07 ЮЗ 1 10 км 6/6 1000 м
[Sc]
+25.2 +13.6 49 +27 +35 жарко 1012.7 1000.6
10 18.07 Ю 1 10 км 5/5 1000 м
[Sc]
+26.4 +12.7 43 +28 +39 жарко 1012.8 1000.7
11 18.07 ЮЗ 1 10 км 8/8 1000 м
[Cu Sc]
+26.8 +13.7 44 +29 +33 жарко 1013.0 1000.9
12 18.07 Ю 1 10 км 8/8 1000 м
[Cu Sc]
+27.2 +13.4 43 +29 +33 жарко 1013.0 1000.9
13 18.07 С 1 10 км 9/9 1000 м
[Cu Sc]
+27.4 +13.3 42 +29 +31 жарко 1013.1 1001.0
14 18.07 С 2 10 км в посл. час гроза {дождь} 9/9 1000 м
[Cu Sc]
+22.2 +19.7 86 +28 +29 душно 1013.5 1001.3
15 18.07 С 3 10 км {гроза, дождь} 9/9 1000 м
[Cu Sc]
+22.3 +18.7 80 +28 +28 душно 1013.6 1001.4
16 18.07 С 3 10 км 8/8 1000 м
[Sc]
+22.9 +16.9 69 +28 +28 душно 1013.6 1001.4
17 18.07 СВ 1 10 км 5/3 1000 м
[Sc Ci fib]
+23.0 +16.9 69 +28 +29 душно 1012.9 1000.7
18 18.07 С 1 10 км {гроза, дождь} 5/3 1000 м
[Sc Ci fib]
+21.6 +16.7 74 +26 +26 душно 1013.4 1001.1 +27.6 0.1
19 18.07 штиль 0 10 км 3/3 1000 м
[Sc]
+20.3 +16.9 81 +23 +23 комфорт 1014.1 1001.7
20 18.07 С 1 10 км 1/1 1000 м
[Sc]
+18.6 +16.7 89 +21 +21 комфорт 1014.3 1001.9
21 18.07 штиль 0 10 км 4/4 1000 м
[Sc]
+17.7 +15.8 89 +18 +18 1015.0 1002.5
22 18.07 С 1 10 км в посл. час гроза 6/6 1000 м
[Sc]
+17.6 +16.0 90 +19 +19 1015.4 1002.9
23 18.07 СЗ 1 10 км 8/8 1000 м
[Sc]
+18.0 +16.1 89 +19 +19 1015.9 1003.4
00 19.07 штиль 0 10 км {гроза} 6/6 1000 м
[Sc]
+17.7 +16.0 90 +18 +18 1015.8 1003.3
01 19.07 ЮВ 1 10 км 8/8 1000 м
[Sc]
+17.9 +15.5 86 +19 +19 1015.5 1003.0
02 19.07 С 1 10 км 6/3 1000 м
[Sc Ci fib]
+16.5 +14.7 89 +17 +17 1015.9 1003.3
03 19.07 штиль 0 10 км 4/4 1000 м
[Sc]
+16.0 +14.3 90 +16 +16 1016.0 1003.4
04 19.07 штиль 0 10 км 3/3 1000 м
[Sc]
+15.9 +14.4 91 +16 +16 1016.1 1003.5
05 19.07 штиль 0 10 км 3/0
[Ci fib]
+17.8 +15.4 86 +18 +20 1016.4 1003.9
06 19.07 В 1 10 км 3/0
[Ci fib]
+20.1 +15.8 76 +24 +29 комфорт 1016.3 1003.9 +15.6
07 19.07 ЮВ 2 10 км 1/0
[Ci fib]
+22.6 +15.2 63 +26 +35 жарко 1016.5 1004.2
08 19.07 ЮВ 2 10 км 1/0
[Ci fib]
+24.0 +15.1 57 +27 +39 жарко 1016.6 1004.4
09 19.07 Ю 2 10 км 1/0
[Ac trans]
+25.7 +15.5 53 +29 +43 душно 1016.9 1004.7
10 19.07 ЮЗ 2 10 км 3/1 1000 м
[Cu hum Ac trans]
+26.2 +15.6 52 +29 +43 жарко 1016.9 1004.7
11 19.07 ЮЗ 2 10 км 4/1 1000 м
[Cu hum Ac trans Ci fib]
+26.9 +15.1 48 +30 +43 душно 1016.8 1004.7
12 19.07 ЮЗ 2 10 км 4/3 1000 м
[Cu med, cong Ci fib]
+27.5 +16.6 51 +31 +42 душно 1016.5 1004.4
13 19.07 ЮЗ 3 10 км 6/3 1000 м
[Cu med, cong Ci fib]
+27.8 +16.6 51 +31 +39 душно 1016.2 1004.1
14 19.07 ЮЗ 2 10 км 6/4 1000 м
[Cu med, cong Ci fib]
+28.0 +15.4 46 +31 +36 душно 1016.2 1004.1
15 19.07 С 3 10 км 8/6 1000 м
[Cu med, cong Ci fib]
+27.2 +16.0 50 +30 +32 душно 1015.6 1003.5
16 19.07 С 2 10 км 3/1 1000 м
[Cu med, cong Ci fib]
+27.8 +16.2 49 +31 +34 душно 1015.5 1003.4
17 19.07 В 1 10 км 3/3 1000 м
[Cu med, cong]
+28.2 +16.9 50 +32 +33 душно 1015.8 1003.7
18 19.07 СВ 1 10 км 3/3 1000 м
[Cu med, cong]
+27.2 +17.8 56 +31 +31 душно 1015.9 1003.8 +28.5
19 19.07 штиль 0 10 км 1/0
[Ac trans]
+24.0 +18.1 70 +28 +28 душно 1016.3 1004.1
20 19.07 штиль 0 10 км ясно +22.0 +19.0 83 +27 +27 душно 1016.9 1004.6
21 19.07 штиль 0 10 км ясно +20.8 +18.7 88 +25 +25 комфорт 1017.0 1004.7
22 19.07 Ю 1 10 км ясно +21.0 +19.3 90 +27 +27 душно 1017.4 1005.1
23 19.07 З 1 10 км ясно +19.7 +18.5 93 +24 +24 комфорт 1017.7 1005.3

 

Местоположение метеостанции Палич (Сербия): широта 46.10 долгота 19.77 высота над уровнем моря 105 м.

В архиве по умолчанию представлена погода в Паличе за последнюю неделю. Архивные данные за месяц целиком и за предыдущие месяцы, начиная с января 2011 года, Вы можете получить, выбрав интересующий диапазон дат из раскрывающегося списка и нажав кнопку "Ввод!".


*Определитесь, кто Вы:
робот инопланетянин человек

Внимание! Время в таблицах - всемирное. Для получения местного времени необходимо прибавить поправку, которая равна 1 ч.

Смотрите также архив погоды в соседних городах и на ближайших метеорологических станциях:

Погода в Сегеде (Венгрия) (30 км)
Погода в Байе (Венгрия) (58 км)
Погода в Сомборе (Сербия) (60 км)
Погода в Кикинде (Сербия) (61 км)
Погода в Сынниколау-Маре (Румыния) (66 км)
Погода в Жимболии (Румыния) (80 км)
Погода в Нови-Саде (Сербия) (86 км)
Погода в Пакше (Венгрия) (89 км)
Погода в Кечкемете (Венгрия) (91 км)
Погода в Зренянине (Сербия) (96 км)

Пояснения к столбцам:

Ветер - указаны скорость ветра в м/с - средняя за 10 мин, порывы в срок и между сроками (в фигурных скобках) и направление, откуда дует ветер: С - северный, СВ - северо-восточный, В - восточный, ЮВ - юго-восточный, Ю - южный, ЮЗ - юго-западный, З - западный, СЗ - северо-западный.
Видимость - горизонтальная дальность видимости в метрах или километрах. При видимости от 1 до 10 км при отсутствии осадков обычно наблюдается дымка, при ухудшении видимости до 1 км и менее - туман. В сухую погоду видимость может ухудшаться дымом, пылью или мглою.
Явления - указаны атмосферные явления, наблюдавшиеся в срок или в последний час перед сроком; фигурными скобками обозначены явления, наблюдавшиеся между сроками (за 1-3 часа до срока); квадратными скобками обозначены град или гололедные отложения с указанием их диаметра в мм.
Облачность - указаны через наклонную черту общая и нижняя облачность в баллах и высота нижней границы облаков в метрах; квадратными скобками обозначены формы облаков: Ci - перистые, Cs - перисто-слоистые, Cc - перисто-кучевые, Ac - высококучевые, As - высокослоистые, Sc - слоисто-кучевые, Ns - слоисто-дождевые, Cu - кучевые, Cb - кучево-дождевые. Подробнее классификацию облаков см. в Атласе облаков (PDF).
T - Температура воздуха - температура, измеренная на высоте 2 м над землей.
Td - Температура точки росы - температура, при понижении до которой содержащийся в воздухе водяной пар достигнет насыщения.
f - Относительная влажность воздуха - влажноcть воздуха, измеренная на высоте 2 м над землей.
Te - Эффективная температура - температура, которую ощущает одетый по сезону человек в тени. Характеристика душности погоды. При расчете учитывается влияние влажности воздуха и скорости ветра на теплоощущения человека.
Tes - Эффективная температура на солнце - температура, которую ощущает человек, с поправкой на солнечный нагрев. Характеристика знойности погоды. Зависит от высоты солнца над горизонтом, облачности и скорости ветра. Ночью, в пасмурную погоду, а также при ветре 12 м/с и более поправка равна нулю.
P - Атмосферное давление - приведенное к уровню моря атмосферное давление.
Po - Атмосферное давление - измеренное на уровне метеостанции атмосферное давление.
Tmin - Минимальная температура - минимум температуры воздуха на высоте 2 м над землей.
Tmax - Максимальная температура - максимум температуры воздуха на высоте 2 м над землей.
R - Количество осадков - Количество выпавших осадков за период времени, мм. При наведении курсора мыши на число - период времени, за который выпало указанное количество осадков.
R24 - Количество осадков - Количество выпавших осадков за 24 часа, мм.
S - Снежный покров - Высота снежного покрова, см. При наведении курсора мыши на число - состояние снежного покрова и степень покрытия местности в баллах.